Weather History for Princeton, MN

Change the Weather History Date:

Monday, December 2, 2013

  Actual Average Record
Temperature  
Mean Temperature 32 °F -  
Max Temperature 37 °F 31 °F 55 °F (1998)
Min Temperature 26 °F 17 °F -4 °F (2000)
Degree Days  
Heating Degree Days 34    
Moisture  
Dew Point 29 °F    
Average Humidity 88    
Maximum Humidity 100    
Minimum Humidity 75    
Precipitation  
Precipitation 0.06 in - - ()
Sea Level Pressure  
Sea Level Pressure 29.70 in    
Wind  
Wind Speed 4 mph (East)    
Max Wind Speed 12 mph    
Max Gust Speed 16 mph    
Visibility 4 miles    
Events Rain , Snow    
Averages and records for this station are not official NWS values.
T = Trace of Precipitation, MM = Missing Value Source: NWS Daily Summary

Daily Weather History Graph

Daily Weather History Graph

Search for Another Location

Airport:

Trip Planner

Search our weather history database for the weather conditions in past years. The results will help you decide how hot, cold, wet, or windy it might be!

Date:

Astronomy

Dec. 02, 2013 Rise Set
Actual Time 7:35 AM CST 4:31 PM CST
Civil Twilight 7:02 AM CST 5:05 PM CST
Nautical Twilight 6:25 AM CST 5:42 PM CST
Astronomical Twilight 5:49 AM CST 6:18 PM CST
Moon 6:59 AM CST (12/2) 4:37 PM CST (12/2)
Length of Visible Light 10h 03m
Length of Day
8h 56m
Waning Crescent, 0% of the Moon is Illuminated
Dec 2
Waning Crescent
Dec 2
New
Dec 9
First Quarter
Dec 17
Full
Dec 25
Last Quarter

Hourly Weather History & Observations

Time (CST) Temp. Windchill Dew Point Humidity Pressure Visibility Wind Dir Wind Speed Gust Speed Precip Events Conditions
12:13 AM 26.6 °F - 23.0 °F 86% 29.91 in 7.0 mi Calm Calm - N/A   Overcast
12:33 AM 28.4 °F - 23.0 °F 80% 29.91 in 7.0 mi Calm Calm - N/A   Overcast
12:53 AM 28.4 °F 24.6 °F 23.0 °F 80% 29.89 in 7.0 mi ENE 3.5 mph - N/A   Overcast
1:13 AM 28.4 °F 23.3 °F 23.0 °F 80% 29.88 in 7.0 mi East 4.6 mph - N/A   Overcast
1:33 AM 28.4 °F 22.2 °F 23.0 °F 80% 29.87 in 7.0 mi East 5.8 mph - N/A   Overcast
1:53 AM 28.4 °F 24.6 °F 24.8 °F 86% 29.88 in 7.0 mi ESE 3.5 mph - N/A   Overcast
2:13 AM 28.4 °F 24.6 °F 24.8 °F 86% 29.87 in 7.0 mi East 3.5 mph - N/A   Overcast
2:33 AM 28.4 °F - 24.8 °F 86% 29.86 in 7.0 mi Calm Calm - N/A   Overcast
2:53 AM 28.4 °F - 24.8 °F 86% 29.85 in 7.0 mi Calm Calm - N/A   Overcast
3:13 AM 28.4 °F 24.6 °F 24.8 °F 86% 29.85 in 7.0 mi ESE 3.5 mph - N/A   Overcast
3:33 AM 28.4 °F - 24.8 °F 86% 29.85 in 5.0 mi Calm Calm - N/A Snow Light Snow
3:53 AM 28.4 °F - 24.8 °F 86% 29.84 in 2.0 mi Calm Calm - N/A Snow Light Snow
4:13 AM 28.4 °F 23.3 °F 24.8 °F 86% 29.82 in 3.0 mi East 4.6 mph - N/A Snow Light Snow
4:33 AM 28.4 °F 21.2 °F 24.8 °F 86% 29.80 in 5.0 mi ENE 6.9 mph - N/A   Overcast
4:53 AM 28.4 °F 22.2 °F 24.8 °F 86% 29.79 in 5.0 mi East 5.8 mph - N/A   Mostly Cloudy
5:13 AM 28.4 °F 22.2 °F 24.8 °F 86% 29.78 in 5.0 mi East 5.8 mph - N/A   Scattered Clouds
5:33 AM 26.6 °F 20.0 °F 24.8 °F 93% 29.76 in 5.0 mi ENE 5.8 mph - N/A   Clear
5:53 AM 26.6 °F 22.6 °F 24.8 °F 93% 29.76 in 7.0 mi East 3.5 mph - N/A   Scattered Clouds
6:13 AM 28.4 °F - 24.8 °F 86% 29.77 in 7.0 mi Calm Calm - N/A   Mostly Cloudy
6:33 AM 28.4 °F 24.6 °F 24.8 °F 86% 29.77 in 7.0 mi ENE 3.5 mph - N/A   Overcast
6:53 AM 28.4 °F 22.2 °F 24.8 °F 86% 29.77 in 7.0 mi East 5.8 mph - N/A   Overcast
7:13 AM 28.4 °F 23.3 °F 24.8 °F 86% 29.76 in 7.0 mi East 4.6 mph - N/A   Overcast
7:33 AM 28.4 °F 22.2 °F 24.8 °F 86% 29.75 in 7.0 mi East 5.8 mph - N/A   Overcast
7:53 AM 28.4 °F 21.2 °F 26.6 °F 93% 29.75 in 7.0 mi East 6.9 mph - N/A   Overcast
8:13 AM 30.2 °F 24.3 °F 26.6 °F 86% 29.75 in 5.0 mi East 5.8 mph - N/A Snow Light Snow
8:33 AM 28.4 °F 22.2 °F 26.6 °F 93% 29.75 in 1.2 mi East 5.8 mph - N/A Snow Light Snow
8:53 AM 28.4 °F 23.3 °F 26.6 °F 93% 29.74 in 0.8 mi East 4.6 mph - N/A Snow Light Snow
9:13 AM 30.2 °F 23.4 °F 26.6 °F 86% 29.73 in 1.0 mi East 6.9 mph - N/A Snow Light Snow
9:33 AM 30.2 °F 23.4 °F 28.4 °F 93% 29.72 in 1.8 mi East 6.9 mph - N/A Snow Light Snow
9:53 AM 30.2 °F 23.4 °F 28.4 °F 93% 29.71 in 1.5 mi East 6.9 mph - N/A Snow Light Snow
10:13 AM 32.0 °F 25.6 °F 28.4 °F 87% 29.71 in 2.5 mi East 6.9 mph - N/A   Mostly Cloudy
10:33 AM 33.8 °F 27.7 °F 30.2 °F 87% 29.71 in 4.0 mi East 6.9 mph - N/A   Scattered Clouds
10:53 AM 33.8 °F 27.0 °F 30.2 °F 87% 29.70 in 4.0 mi East 8.1 mph - N/A   Scattered Clouds
11:13 AM 33.8 °F 26.4 °F 30.2 °F 87% 29.69 in 4.0 mi East 9.2 mph - N/A   Scattered Clouds
11:33 AM 35.6 °F 29.9 °F 30.2 °F 81% 29.68 in 5.0 mi East 6.9 mph - 0.02 in   Haze
11:53 AM 37.4 °F 31.4 °F 30.2 °F 75% 29.67 in 5.0 mi ESE 8.1 mph - 0.02 in   Haze
12:13 PM 37.4 °F 32.1 °F 32.0 °F 81% 29.67 in 5.0 mi ESE 6.9 mph - N/A   Haze
12:33 PM 37.4 °F 31.4 °F 32.0 °F 81% 29.65 in 5.0 mi ESE 8.1 mph - N/A   Haze
12:53 PM 37.4 °F 32.1 °F 32.0 °F 81% 29.64 in 5.0 mi ESE 6.9 mph - N/A   Haze
1:13 PM 37.4 °F 31.4 °F 32.0 °F 81% 29.63 in 5.0 mi East 8.1 mph - N/A   Haze
1:33 PM 37.4 °F 31.4 °F 30.2 °F 75% 29.62 in 5.0 mi East 8.1 mph - N/A   Haze
1:53 PM 37.4 °F 32.8 °F 32.0 °F 81% 29.62 in 5.0 mi East 5.8 mph - N/A   Haze
2:13 PM 37.4 °F 31.4 °F 32.0 °F 81% 29.61 in 5.0 mi East 8.1 mph - N/A Rain Light Rain
2:33 PM 37.4 °F 34.9 °F 32.0 °F 81% 29.61 in 4.0 mi East 3.5 mph - N/A Rain Light Rain
2:53 PM 35.6 °F 30.7 °F 32.0 °F 87% 29.61 in 4.0 mi East 5.8 mph - 0.01 in Rain Light Rain
3:13 PM 35.6 °F 30.7 °F 32.0 °F 87% 29.61 in 1.5 mi East 5.8 mph - 0.01 in Snow Light Snow
3:33 PM 33.8 °F 28.6 °F 32.0 °F 93% 29.61 in 0.8 mi East 5.8 mph - 0.01 in Snow Light Snow
3:53 PM 33.8 °F 29.6 °F 32.0 °F 93% 29.61 in 0.8 mi East 4.6 mph - 0.01 in Snow Light Snow
4:13 PM 33.8 °F 27.7 °F 32.0 °F 93% 29.61 in 1.0 mi East 6.9 mph - N/A Snow Light Snow
4:33 PM 33.8 °F 27.7 °F 32.0 °F 93% 29.60 in 1.0 mi East 6.9 mph - N/A Snow Light Snow
4:53 PM 33.8 °F 25.3 °F 32.0 °F 93% 29.59 in 1.2 mi East 11.5 mph - N/A Snow Light Snow
5:13 PM 33.8 °F 26.4 °F 32.0 °F 93% 29.59 in 1.2 mi East 9.2 mph 16.1 mph N/A Snow Light Snow
5:33 PM 33.8 °F 25.8 °F 32.0 °F 93% 29.58 in 1.8 mi East 10.4 mph - N/A Snow Light Snow
5:53 PM 33.8 °F 25.8 °F 32.0 °F 93% 29.59 in 3.0 mi East 10.4 mph - N/A Snow Light Snow
6:13 PM 33.8 °F 27.0 °F 32.0 °F 93% 29.59 in 3.0 mi East 8.1 mph - N/A Rain Light Rain
6:33 PM 33.8 °F 27.7 °F 32.0 °F 93% 29.60 in 3.0 mi ESE 6.9 mph - N/A   Overcast
6:53 PM 33.8 °F 27.7 °F 32.0 °F 93% 29.60 in 2.5 mi East 6.9 mph - N/A   Overcast
7:13 PM 33.8 °F 27.7 °F 32.0 °F 93% 29.60 in 2.0 mi East 6.9 mph - N/A   Light Drizzle
7:33 PM 33.8 °F 27.7 °F 32.0 °F 93% 29.60 in 2.0 mi East 6.9 mph - N/A Snow Light Snow
7:53 PM 33.8 °F 28.6 °F 32.0 °F 93% 29.60 in 1.2 mi East 5.8 mph - N/A Snow Light Snow
8:13 PM 33.8 °F 28.6 °F 32.0 °F 93% 29.60 in 1.8 mi East 5.8 mph - N/A Snow Light Snow
8:33 PM 33.8 °F 27.7 °F 32.0 °F 93% 29.60 in 1.8 mi East 6.9 mph - N/A   Overcast
8:53 PM 33.8 °F 29.6 °F 32.0 °F 93% 29.60 in 1.8 mi East 4.6 mph - N/A Rain Rain
9:13 PM 33.8 °F 27.7 °F 32.0 °F 93% 29.59 in 2.0 mi East 6.9 mph - N/A   Drizzle
9:33 PM 33.8 °F 27.7 °F 32.0 °F 93% 29.59 in 2.0 mi East 6.9 mph - N/A Rain Light Rain
9:53 PM 33.8 °F 27.7 °F 32.0 °F 93% 29.59 in 2.5 mi East 6.9 mph - N/A Rain Rain
10:13 PM 33.8 °F 28.6 °F 32.0 °F 93% 29.59 in 2.0 mi East 5.8 mph - N/A   Drizzle
10:33 PM 33.8 °F 28.6 °F 32.0 °F 93% 29.60 in 2.0 mi East 5.8 mph - N/A   Drizzle
10:53 PM 33.8 °F 29.6 °F 33.8 °F 100% 29.60 in 2.0 mi East 4.6 mph - N/A   Drizzle
11:13 PM 33.8 °F 29.6 °F 32.0 °F 93% 29.60 in 2.0 mi East 4.6 mph - 0.01 in   Drizzle
11:33 PM 33.8 °F 29.6 °F 32.0 °F 93% 29.60 in 2.5 mi East 4.6 mph - 0.02 in   Light Drizzle
11:53 PM 33.8 °F 29.6 °F 33.8 °F 100% 29.60 in 2.5 mi East 4.6 mph - 0.02 in   Drizzle